Tracking 34747 objects as of 16-Jul-2026
HD Live streaming from Space Station
objects crossing your sky now

BREEZE-M DEB

Track BREEZE-M DEB now!
10-day predictions


NORAD ID: 36962
Int'l Code: 2006-006CU
Perigee: 440.6 km
Apogee: 9,142.5 km
Inclination: 51.5 °
Period: 195.6 minutes
Semi major axis: 11162 km
RCS: 0.025 m2 (small)
Launch date: February 28, 2006
Source: Commonwealth of Independent States (former USSR) (CIS)
Launch site: TYURATAM MISSILE AND SPACE COMPLEX (TTMTR)

Note: This is SATELLITE DEBRIS
Your satellite tracking list
Your tracking list is empty




NASA's NSSDC Master Catalog

Two Line Element Set (TLE):
1 36962U 06006CU  26196.01692460  .00007985  00000-0  41115-2 0  9993
2 36962  51.5398  81.3724 3897822 187.4936 164.4650  7.36138720263128
Source of the keplerian elements: AFSPC